TimeEST,TemperatureF,Dew PointF,Humidity,Sea Level PressureIn,VisibilityMPH,Wind Direction,Wind SpeedMPH,Gust SpeedMPH,PrecipitationIn,Events,Conditions,WindDirDegrees,DateUTC
12:15 AM,24.8,24.8,100,29.91,10.0,West,12.7,16.1,N/A,,Overcast,280,2013-02-16 05:15:00
12:35 AM,24.8,24.8,100,29.89,10.0,WNW,13.8,20.7,N/A,,Overcast,290,2013-02-16 05:35:00
12:55 AM,24.8,24.8,100,29.89,10.0,WNW,15.0,20.7,N/A,,Overcast,290,2013-02-16 05:55:00
1:15 AM,24.8,24.8,100,29.89,10.0,WNW,13.8,18.4,N/A,,Overcast,290,2013-02-16 06:15:00
1:35 AM,24.8,24.8,100,29.88,10.0,WNW,10.4,17.3,N/A,,Mostly Cloudy,290,2013-02-16 06:35:00
1:55 AM,24.8,24.8,100,29.87,10.0,WNW,10.4,-,N/A,,Overcast,290,2013-02-16 06:55:00
2:15 AM,24.8,24.8,100,29.88,10.0,WNW,5.8,-,N/A,,Overcast,300,2013-02-16 07:15:00
2:35 AM,24.8,23.0,93,29.87,10.0,NW,6.9,-,N/A,,Overcast,320,2013-02-16 07:35:00
2:55 AM,23.0,23.0,100,29.87,10.0,NW,10.4,-,N/A,,Overcast,310,2013-02-16 07:55:00
3:15 AM,23.0,21.2,93,29.86,10.0,WNW,11.5,16.1,N/A,,Overcast,300,2013-02-16 08:15:00
3:35 AM,23.0,21.2,93,29.86,10.0,NW,11.5,16.1,N/A,,Overcast,310,2013-02-16 08:35:00
3:55 AM,21.2,19.4,93,29.85,10.0,WNW,10.4,17.3,N/A,,Overcast,290,2013-02-16 08:55:00
4:15 AM,21.2,19.4,93,29.85,10.0,WNW,9.2,-,N/A,,Overcast,290,2013-02-16 09:15:00
4:35 AM,21.2,19.4,93,29.85,10.0,NW,10.4,-,N/A,,Overcast,310,2013-02-16 09:35:00
4:55 AM,21.2,19.4,93,29.85,10.0,WNW,8.1,-,N/A,,Overcast,300,2013-02-16 09:55:00
5:15 AM,21.2,19.4,93,29.85,10.0,WNW,6.9,-,N/A,,Overcast,290,2013-02-16 10:15:00
5:35 AM,21.2,19.4,93,29.85,10.0,WNW,9.2,-,N/A,,Mostly Cloudy,300,2013-02-16 10:35:00
5:55 AM,21.2,19.4,93,29.85,10.0,WNW,5.8,-,N/A,,Mostly Cloudy,300,2013-02-16 10:55:00
6:15 AM,21.2,19.4,93,29.85,10.0,WNW,9.2,-,N/A,,Overcast,300,2013-02-16 11:15:00
6:35 AM,21.2,19.4,93,29.85,10.0,West,6.9,-,N/A,,Scattered Clouds,280,2013-02-16 11:35:00
6:55 AM,21.2,19.4,93,29.84,10.0,WNW,6.9,-,N/A,,Scattered Clouds,290,2013-02-16 11:55:00
7:15 AM,21.2,19.4,93,29.84,10.0,WNW,4.6,-,N/A,,Mostly Cloudy,290,2013-02-16 12:15:00
7:35 AM,21.2,19.4,93,29.84,10.0,WNW,9.2,-,N/A,,Scattered Clouds,290,2013-02-16 12:35:00
7:55 AM,21.2,19.4,93,29.84,10.0,West,8.1,-,N/A,,Scattered Clouds,280,2013-02-16 12:55:00
8:15 AM,21.2,19.4,93,29.84,10.0,West,8.1,-,N/A,,Mostly Cloudy,280,2013-02-16 13:15:00
8:35 AM,21.2,19.4,93,29.84,10.0,WNW,5.8,-,N/A,,Overcast,290,2013-02-16 13:35:00
8:55 AM,21.2,19.4,93,29.84,5.0,NW,5.8,-,N/A,Snow,Light Snow,320,2013-02-16 13:55:00
9:15 AM,21.2,19.4,93,29.84,7.0,NNW,5.8,-,N/A,Snow,Light Snow,330,2013-02-16 14:15:00
9:35 AM,21.2,19.4,93,29.84,10.0,NW,4.6,-,N/A,Snow,Light Snow,320,2013-02-16 14:35:00
9:55 AM,21.2,19.4,93,29.83,10.0,NNW,4.6,-,N/A,,Overcast,330,2013-02-16 14:55:00
10:15 AM,21.2,17.6,86,29.83,10.0,NNW,6.9,-,N/A,,Overcast,330,2013-02-16 15:15:00
10:35 AM,21.2,17.6,86,29.83,10.0,NNW,6.9,-,N/A,,Mostly Cloudy,330,2013-02-16 15:35:00
1:35 PM,21.2,15.8,80,29.77,10.0,WNW,5.8,-,N/A,,Scattered Clouds,300,2013-02-16 18:35:00
1:55 PM,21.2,15.8,80,29.76,10.0,WNW,9.2,-,N/A,,Scattered Clouds,290,2013-02-16 18:55:00
2:15 PM,23.0,15.8,74,29.76,10.0,WNW,9.2,-,N/A,,Mostly Cloudy,290,2013-02-16 19:15:00
2:35 PM,23.0,15.8,74,29.75,10.0,NW,9.2,-,N/A,,Overcast,310,2013-02-16 19:35:00
2:55 PM,21.2,14.0,74,29.75,10.0,NW,10.4,-,N/A,Snow,Light Snow,320,2013-02-16 19:55:00
3:15 PM,21.2,12.2,68,29.75,10.0,NW,12.7,16.1,N/A,,Overcast,310,2013-02-16 20:15:00
3:35 PM,21.2,14.0,74,29.73,10.0,NW,10.4,20.7,N/A,,Overcast,320,2013-02-16 20:35:00
3:55 PM,21.2,12.2,68,29.75,10.0,NW,13.8,21.9,N/A,,Overcast,310,2013-02-16 20:55:00
4:15 PM,21.2,12.2,68,29.74,10.0,NW,13.8,24.2,N/A,,Overcast,320,2013-02-16 21:15:00
4:35 PM,19.4,10.4,68,29.75,10.0,NW,17.3,25.3,N/A,,Overcast,310,2013-02-16 21:35:00
4:55 PM,19.4,10.4,68,29.75,10.0,NW,15.0,25.3,N/A,,Scattered Clouds,320,2013-02-16 21:55:00
5:15 PM,19.4,10.4,68,29.75,10.0,WNW,19.6,26.5,N/A,,Clear,300,2013-02-16 22:15:00
5:35 PM,19.4,8.6,63,29.75,10.0,NW,18.4,26.5,N/A,,Clear,310,2013-02-16 22:35:00
5:55 PM,17.6,8.6,68,29.75,10.0,WNW,18.4,27.6,N/A,,Scattered Clouds,300,2013-02-16 22:55:00
6:15 PM,17.6,8.6,68,29.75,10.0,NW,17.3,27.6,N/A,,Scattered Clouds,310,2013-02-16 23:15:00
6:55 PM,17.6,8.6,68,29.75,10.0,NW,18.4,25.3,N/A,,Clear,320,2013-02-16 23:55:00
7:15 PM,17.6,8.6,68,29.76,10.0,NW,17.3,24.2,N/A,,Clear,310,2013-02-17 00:15:00
7:35 PM,15.8,10.4,79,29.76,10.0,WNW,15.0,24.2,N/A,,Scattered Clouds,290,2013-02-17 00:35:00
7:55 PM,15.8,10.4,79,29.75,10.0,WNW,17.3,21.9,N/A,,Mostly Cloudy,300,2013-02-17 00:55:00
8:15 PM,15.8,10.4,79,29.75,10.0,WNW,16.1,24.2,N/A,,Mostly Cloudy,300,2013-02-17 01:15:00
8:35 PM,15.8,10.4,79,29.74,10.0,WNW,18.4,25.3,N/A,,Scattered Clouds,290,2013-02-17 01:35:00
8:55 PM,15.8,10.4,79,29.75,10.0,WNW,12.7,26.5,N/A,,Mostly Cloudy,300,2013-02-17 01:55:00
9:15 PM,15.8,8.6,73,29.75,10.0,NW,12.7,23.0,N/A,,Mostly Cloudy,310,2013-02-17 02:15:00
9:35 PM,14.0,8.6,79,29.75,10.0,WNW,13.8,20.7,N/A,,Scattered Clouds,300,2013-02-17 02:35:00
9:55 PM,14.0,8.6,79,29.75,10.0,WNW,15.0,20.7,N/A,,Clear,290,2013-02-17 02:55:00
10:15 PM,14.0,8.6,79,29.75,10.0,WNW,11.5,21.9,N/A,,Clear,300,2013-02-17 03:15:00
10:35 PM,14.0,8.6,79,29.75,10.0,WNW,9.2,19.6,N/A,,Scattered Clouds,290,2013-02-17 03:35:00
10:55 PM,14.0,8.6,79,29.74,10.0,WNW,11.5,17.3,N/A,,Mostly Cloudy,290,2013-02-17 03:55:00
11:15 PM,14.0,6.8,73,29.73,10.0,WNW,16.1,23.0,N/A,,Scattered Clouds,290,2013-02-17 04:15:00
11:35 PM,14.0,6.8,73,29.73,10.0,West,17.3,20.7,N/A,,Mostly Cloudy,280,2013-02-17 04:35:00
11:55 PM,14.0,8.6,79,29.73,10.0,WNW,13.8,23.0,N/A,,Overcast,290,2013-02-17 04:55:00